Погода в Туркестане

Хотите узнать прогноз погоды в Туркестане? Тогда Вам сюда: Погода в Туркестане

Поиск расширенной информации на нашем сайте:

Полезная информация:

Новости сайта



02.01.2020
Опубликован Долгосрочный прогноз погоды по городам России и ближнего зарубежья на январь 2020 года.
Карты: Прогноз на январь и февраль 2020 года, Сравнение прогнозируемой аномалии приземной температуры воздуха на январь 2020 года по разным моделям.




Погода в Туркестане - сегодня

Время (UTC), дата Ветер
(°,м/с) 
Видим.   Явления Облачность Т
(°С)
Тd
(°С)
f(%) Тe
(°С)
Pmin
(гПа)
dP
(гПа)
Po
(мм)
O2
(г/м3)
Тmin Tmax R s Состояние
почвы
18 24.01.20 210 (ЮЗ) н/о  дымка{ливн. осадки, морось}  10/10 600 м кучево-дожд. 
[Cb cap]
+2.7 +2.7 100 +3  1019  2.7  745  297    +4.5     
21 24.01.20 тихо ()   н/о    10/10 600 м кучево-дожд. 
[Cb cap]
+1.9 +1.9 100 +2  1019.7  0.6  746  298           
00 25.01.20 150 (ЮВ) н/о  слаб. ливневой дождь  10/10 600 м кучево-дожд. 
[Cb cap]
+1.4 +1.4 100 +2  1020.2  0.5  746  299           
03 25.01.20 310 (СЗ) 4000 м  слаб. ливневой дождь  10/10 600 м кучево-дожд. 
[Cb cap]
+1 +1 100 +2  1021  0.7  746  300         
06 25.01.20 310 (СЗ) 4000 м  слаб. ливневой снег  10/10 600 м кучево-дожд. 
[Cb cap]
+0.3 +0.3 100 -2  1022.7  1.6  748  301  +1       
09 25.01.20 320 (СЗ) 4000 м  слаб. ливневой снег  10/8 600 м кучево-дожд., средняя 
[Cb cap|Ac As]
+0.1 +0.1 100 -3  1023.7  748  301           
12 25.01.20 310 (СЗ) 10 км  слаб. ливневой снег  10/10 600 м кучево-дожд. 
[Cb cap]
-1.4 -1.6 99 -4  1025.4  1.5  750  304           
15 25.01.20 300 (СЗ) н/о  {ливн. осадки}  8/5 600 м кучево-дожд., средняя 
[Cb cap|Ac As]
-2.3 -2.3 100 -4  1026.6  750  305    +1     
18 25.01.20 300 (СЗ) н/о  {ливн. осадки}  8/5 600 м кучево-дожд., средняя 
[Cb cap|Ac As]
-3 -3.1 99 -6  1027.4  0.8  751  306    +1     
21 25.01.20 260 (З) н/о    9/8 600 м кучево-дожд., средняя 
[Cb cap|Ac As]
-4.4 -4.6 99 -7  1028.1  0.5  751  308           
00 26.01.20 270 (З) н/о  дымка  3/0 средняя 
[Ac As]
-6.2 -6.3 99 -6  1028.4  0.1  751  310           
03 26.01.20 120 (ЮВ) 2000 м  в посл. час туман  10/0 средняя 
[Ac As]
-6.4 -6.5 99 -8  1029.1  0.7  752  311           
06 26.01.20 100 (В) 10 км  {туман}  10/0 средняя 
[As op]
-4 -4.2 99 -6  1028.3  -0.5  752  308  -6.5         
09 26.01.20 110 (В) 10 км    10/0 средняя 
[Ac As]
-3.1 -3.2 99 -5  1026.8  -1.4  750  306           
12 26.01.20 100 (В) 10 км    10/0 средняя 
[Ac As]
-2.4 -2.4 100 -5  1025.2  -1.5  749  305           
15 26.01.20 100 (В) н/о    10/0 средняя 
[Ac As]
-2.2 -2.2 100 -6  1024.6  -0.6  749  304    -2.1       
18 26.01.20 210 (ЮЗ) н/о    10/0 средняя 
[Ac As]
-2 -2.3 98 -4  1023.6  -0.9  748  304    -2.1       
21 26.01.20 100 (В) н/о    8/0 средняя 
[Ac As]
-2.3 -2.3 100 -4  1022.4  -1.3  747  304           
00 27.01.20 130 (ЮВ) н/о    8/0 средняя 
[Ac As]
-2.3 -2.3 100 -4  1020.8  -1.5  746  303           
03 27.01.20 170 (Ю) 10 км    10/0 средняя 
[Ac As]
-0.6 -0.7 99 -2  1020.2  -0.4  746  301           
06 27.01.20 210 (ЮЗ) 1000 м  ливневой снег  10/10 600 м кучево-дожд. 
[Cb cap]
-0.6 -0.7 99 -2  1021.2  747  302  -2.4         
09 27.01.20 250 (З) 0500 м  ливневой снег  10/10 600 м кучево-дожд. 
[Cb cap]
+0 +0 100 -3  1022.3  1.1  747  301           
12 27.01.20 300 (СЗ) 10 км  в посл. час ливневой снег  8/6 600 м кучево-дожд., средняя 
[Cb cap|Ac As]
-1.6 -1.8 99 -3  1025.3  2.8  749  304           
15 27.01.20 230 (ЮЗ) н/о  дымка  5/0 средняя 
[Ac As]
-9.2 -9.5 98 -9  1029.8  3.6  752  315    +0.1     
18 27.01.20 110 (В) н/о    9/3 600 м кучево-дожд., средняя 
[Cb cap|Ac As]
-6.6 -6.7 99 -9  1030.5  0.9  752  311    +0.1     
Время (UTC), дата Ветер
(°,м/с) 
Видим.   Явления Облачность Т
(°С)
Тd
(°С)
f(%) Тe
(°С)
Pmin
(гПа)
dP
(гПа)
Po
(мм)
O2
(г/м3)
Тmin Tmax R s Состояние
почвы

Для получения пояснительной информации подведите курсор к названию столбца.

ПОГОДА в Туркестане - архив

Всё, что Вы хотите узнать о погоде в Туркестане - удобно и подробно!

Выберите нужную дату (начиная с 1 января 2019* года) и нажмите кнопку "Найти".
Будут отображены архивные сводки погоды по пункту Туркестан, начиная с указанной даты.


Отображать данные в формате CSV (для использования в таблицах Excel)


Внимание! Наш архив погоды предназначен исключительно для личного некоммерческого использования в познавательных целях. Если Вам необходимы официальные справки о состоянии погоды (для производственных, юридических, коммерческих и т.п. целей), обращайтесь в органы Росгидромета.

*Примечание: данная дата относится к архиву по метеостанциям СССР (Россия, СНГ, Балтия).
Архив по метеостанциям Зарубежной Европы и Азии (кроме Китая) хранится 10 дней, по другим регионам земного шара (Китай, Африка, Америка, Австралия, Океания) - 1 день.

Туркестан - район местоположения метеостанции


Название, широта, долгота, высота метеостанции:
Туркестан 43.3°ш. 68.2°д. 207 м над ур. моря [Казахстан]

Дополнительная информация

В oтличие oт бoльшинства пoгoдных сайтoв мы публикуем пoдрoбную метеoинфoрмацию в детальнoм прoфессиoнальнoм фoрмате.

Характеристики температуры и влажнoсти вoздуха измеряются на высoте 2 м в тени вдали oт зданий и деревьев.
Скoрoсть ветра измеряется на высoте 10 м (на урoвне рoста челoвека скoрoсть ветра ниже в 1.5-2 раза). Если метеoстанция нахoдится в гoрoде или в лесу, тo скoрoсть ветра занижена на 2-4 м/с пo сравнению с oткрытым местoм. Скoрoсть ветра над акватoриями крупных рек и oзёр, а также на вершинах хoлмoв на 2-5 м/с выше, чем в oбычных услoвиях.
Атмoсфернoе давление в разных тoчках местнoсти мoжет значительнo oтличаться oт давления на метеoстанции, в зависимoсти oт услoвий рельефа (при пoдъёме на 10 м давление пoнижается примернo на 1 мм рт.ст.).